Regional Weather Roundup
Issued by NWS

Home | Current Version | Previous Version | Graphics & Text | Print | Product List | Glossary On
Versions: 1 2 3 4 5 6 7 8 9 10 11 12 13 14 15 16 17 18 19 20 21 22 23 24 25 26 27 28 29 30 31 32 33 34 35 36 37 38 39 40 41 42 43 44 45 46 47 48 49 50
000
ASUS43 KOAX 271210
RWRNE

WEATHER ROUNDUP FOR NEBRASKA
NATIONAL WEATHER SERVICE OMAHA NE
700 AM CDT SAT AUG 27 2016

NOTES: SATELLITE DATA IS BEING USED TO AUGMENT CLOUD COVER ABOVE
       12000 FEET.
       "FAIR" INDICATES FEW OR NO CLOUDS BELOW 12,000 FEET WITH NO
       SIGNIFICANT WEATHER AND/OR OBSTRUCTIONS TO VISIBILITY.

  * THESE STATIONS DO NOT REPORT WEATHER SUCH AS RAIN...SNOW OR FOG.

NEZ001>004-019>022-054>056-271300-
NEBRASKA PANHANDLE

CITY           SKY/WX    TMP DP  RH WIND       PRES   REMARKS
SCOTTSBLUFF    FOG       54  53  97 SE7       30.05S VSB 1/4
6HR MIN TEMP:  51; 6HR MAX TEMP:  57;

ALLIANCE       FOG       55  54  96 S8        30.05S VSB 3/4
6HR MIN TEMP:  53; 6HR MAX TEMP:  55;

CHADRON        CLEAR     50  48  93 SE3       30.03R
6HR MIN TEMP:  50; 6HR MAX TEMP:  58; 6HR PCP:  0.07;

KIMBALL        CLOUDY    49  49 100 CALM      30.10R
SIDNEY         FOG       50  50 100 SE6       30.08S VSB 1/2
6HR MIN TEMP:  50; 6HR MAX TEMP:  55;

$$

NEZ057>060-069>072-079>082-271300-
SOUTHWEST NEBRASKA

CITY           SKY/WX    TMP DP  RH WIND       PRES   REMARKS
NORTH PLATTE   FOG       53  51  93 CALM      30.05S VSB 1/4
6HR MIN TEMP:  50; 6HR MAX TEMP:  55;

IMPERIAL       CLOUDY    51  51 100 NE5       30.08S
6HR MIN TEMP:  49; 6HR MAX TEMP:  52;

LEXINGTON        N/A     53  51  94 CALM      30.04S FOG
MCCOOK         MOCLDY    51  49  92 N7        30.07R
6HR MIN TEMP:  50; 6HR MAX TEMP:  54;

OGALLALA       FOG       55  54  94 CALM      30.07S VSB 1/4
$$

NEZ005>010-023>029-035>040-094-271300-
NORTH CENTRAL NEBRASKA

CITY           SKY/WX    TMP DP  RH WIND       PRES   REMARKS
VALENTINE      MOCLDY    56  54  93 S9        30.01F
6HR MIN TEMP:  52; 6HR MAX TEMP:  57;

AINSWORTH      CLOUDY    57  57 100 W12       30.04R FOG
BROKEN BOW     FOG       58  58 100 CALM      30.05R VSB 3/4
6HR MIN TEMP:  56; 6HR MAX TEMP:  63;

O`NEILL        FOG       57  56  96 CALM      30.04R VSB 1/4
ORD            FOG       58  56  93 CALM      30.03R VSB 3/4
6HR MIN TEMP:  59; 6HR MAX TEMP:  64; 6HR PCP: TRACE;

THEDFORD       FOG       54  53  99 W3        30.05S VSB 1/4
$$

NEZ041-046>049-061>064-073>077-083>087-271300-
SOUTH CENTRAL NEBRASKA

CITY           SKY/WX    TMP DP  RH WIND       PRES   REMARKS
GRAND ISLAND   FOG       56  55  97 W7        30.04R VSB 1/4
6HR MIN TEMP:  56; 6HR MAX TEMP:  65; 6HR PCP: TRACE;

AURORA         FOG       60  60 100 CALM      30.03S VSB 1/4
HASTINGS       CLOUDY    58  57  97 W3        30.05R FOG
6HR MIN TEMP:  57; 6HR MAX TEMP:  65; 6HR PCP: TRACE;

HEBRON         CLOUDY    66  65  98 CALM      30.03R FOG
HOLDREGE       CLEAR     53  51  95 CALM      30.06S
KEARNEY *      CLEAR     55  54  94 S3        30.05R
YORK           FOG       63  63 100 CALM      30.03S VSB<1/4
$$

NEZ011>018-030>034-042>045-271300-
NORTHEAST NEBRASKA

CITY           SKY/WX    TMP DP  RH WIND       PRES   REMARKS
NORFOLK        CLOUDY    63  62  97 CALM      30.03R FOG
6HR MIN TEMP:  63; 6HR MAX TEMP:  64; 6HR PCP:  0.02;

ALBION         CLOUDY    64  62  94 W3        30.05R FOG
BLAIR          FOG       66  65  97 SE3       30.01R VSB 1/4
FREMONT        CLOUDY    66  66  99 CALM      30.02R FOG
TEKAMAH        FOG       65  64  97 SE3       30.00S VSB 3/4
6HR MIN TEMP:  65; 6HR MAX TEMP:  66;

WAYNE          CLOUDY    64  63  99 CALM      30.03R FOG
$$

NEZ050>053-065>068-078-088>093-271300-
SOUTHEAST NEBRASKA

CITY           SKY/WX    TMP DP  RH WIND       PRES   REMARKS
LINCOLN        CLOUDY    68  67  96 SE3       30.03R FOG
6HR MIN TEMP:  67; 6HR MAX TEMP:  68;

OMAHA EPPLEY   FOG       67  64  90 S7        30.01R VSB 1/2
6HR MIN TEMP:  66; 6HR MAX TEMP:  67;

BEATRICE       MOCLDY    66  66  98 N3        30.02S
FALLS CITY     CLOUDY    68  68 100 SW7       29.99S
6HR MIN TEMP:  65; 6HR MAX TEMP:  69; 6HR PCP:  0.13;

NEBRASKA CITY  FOG       67  67 100 NW6       30.02R VSB 1
PLATTSMOUTH    CLOUDY    67  67 100 CALM      30.02R FOG
$$

NEZ044-045-051>053-067-271300-
OMAHA AREA

CITY           SKY/WX    TMP DP  RH WIND       PRES   REMARKS
OMAHA EPPLEY   FOG       67  64  90 S7        30.01R VSB 1/2
6HR MIN TEMP:  66; 6HR MAX TEMP:  67;

BLAIR          FOG       66  65  97 SE3       30.01R VSB 1/4
FREMONT        CLOUDY    66  66  99 CALM      30.02R FOG
MILLARD        CLOUDY    67  66  96 SE3       30.02R FOG
OFFUTT AFB     FOG       66  66 100 CALM      30.01S VSB 3/4
PLATTSMOUTH    CLOUDY    67  67 100 CALM      30.02R FOG
WAHOO          FOG       66  65  96 CALM      30.02R VSB 3/4
$$




USA.gov is the U.S. government's official web portal to all federal, state and local government web resources and services.